Date String (YYYY-MM-DD hh:mm:ss) UTC,Instrument flags,Ambient pressure (hPa),Sample flow (lpm),Bypass flow (lpm),Sample temperature (°C),Ambient temperature (°C),ASC tube jacket temperature (°C),LED temperature (°C),Box temperature (°C),Sample RH (%),Span deviation,Mass concentration (μg/m³),Mass concentration (μg/m³),Mass concentration (μg/m³)
DateTimeUTC,F1_M11,P_M11,Q1_M11,Q2_M11,T1_M11,T2_M11,T3_M11,T4_M11,T5_M11,U1_M11,ZSPAN_M11,X2_M11,X0_M11,X1_M11
2021-11-28 12:00:00,,0829.4,5.00,0.00,22.7,21.9,00.0,31.7,24.5,14.3,0000.0,0002.30,0008.23,0001.32
2021-11-28 12:01:00,,0829.3,5.01,0.00,22.7,21.9,00.0,31.7,24.5,14.3,0000.0,0002.32,0008.24,0001.31
2021-11-28 12:02:00,,0829.5,4.99,0.00,22.7,21.8,00.0,31.7,24.5,14.3,0000.0,0002.33,0008.32,0001.32
2021-11-28 12:03:00,,0829.4,5.00,0.00,22.7,21.8,00.0,31.7,24.5,14.3,0000.0,0002.39,0008.65,0001.34
2021-11-28 12:04:00,,0829.3,5.00,0.00,22.7,21.8,00.0,31.7,24.5,14.3,0000.0,0002.44,0009.49,0001.36
2021-11-28 12:05:00,,0829.5,5.00,0.00,22.7,21.8,00.0,31.7,24.5,14.3,0000.0,0002.52,0010.74,0001.37
2021-11-28 12:06:00,,0829.3,5.00,0.00,22.7,21.8,00.0,31.7,24.5,14.3,0000.0,0002.54,0010.64,0001.37
2021-11-28 12:07:00,,0829.2,4.99,0.00,22.7,21.8,00.0,31.7,24.5,14.3,0000.0,0002.54,0009.78,0001.38
2021-11-28 12:08:00,,0829.2,5.00,0.00,22.7,21.8,00.0,31.7,24.5,14.3,0000.0,0002.47,0009.81,0001.38
2021-11-28 12:09:00,,0829.2,5.00,0.00,22.7,21.8,00.0,31.7,24.5,14.3,0000.0,0002.47,0009.51,0001.39
2021-11-28 12:10:00,,0829.2,5.00,0.00,22.7,21.8,00.0,31.7,24.5,14.3,0000.0,0002.47,0009.33,0001.39
2021-11-28 12:11:00,,0829.2,5.00,0.00,22.7,21.8,00.0,31.7,24.5,14.3,0000.0,0002.48,0008.67,0001.42
2021-11-28 12:12:00,,0829.1,5.01,0.00,22.7,21.8,00.0,31.7,24.5,14.3,0000.0,0002.41,0008.50,0001.42
2021-11-28 12:13:00,,0829.2,4.99,0.00,22.7,21.8,00.0,31.7,24.5,14.3,0000.0,0002.35,0008.33,0001.43
2021-11-28 12:14:00,,0829.2,5.01,0.00,22.7,21.8,00.0,31.7,24.5,14.3,0000.0,0002.33,0008.19,0001.42
2021-11-28 12:15:00,,0829.2,5.00,0.00,22.7,21.8,00.0,31.7,24.5,14.3,0000.0,0002.31,0007.70,0001.41
2021-11-28 12:16:00,,0829.2,4.99,0.00,22.7,21.9,00.0,31.7,24.5,14.3,0000.0,0002.23,0006.18,0001.41
2021-11-28 12:17:00,,0829.2,5.01,0.00,22.8,22.5,00.0,31.8,24.7,14.2,0000.0,0002.20,0005.82,0001.42
2021-11-28 12:18:00,,0829.2,4.99,0.00,22.9,23.1,00.0,31.8,24.9,14.1,0000.0,0002.21,0005.72,0001.42
2021-11-28 12:19:00,,0829.3,5.00,0.00,23.0,23.0,00.0,31.8,24.9,14.1,0000.0,0002.20,0005.84,0001.42
2021-11-28 12:20:00,,0829.2,5.00,0.00,23.0,22.9,00.0,31.8,24.9,14.1,0000.0,0002.26,0006.19,0001.42
2021-11-28 12:21:00,,0829.2,5.00,0.00,23.0,22.8,00.0,31.8,24.9,14.1,0000.0,0002.29,0006.38,0001.44
2021-11-28 12:22:00,,0829.3,5.00,0.00,23.0,22.7,00.0,31.9,24.9,14.1,0000.0,0002.30,0006.46,0001.42
2021-11-28 12:23:00,,0829.2,5.00,0.00,23.0,22.6,00.0,31.9,24.9,14.1,0000.0,0002.36,0006.59,0001.42
2021-11-28 12:24:00,,0829.1,4.99,0.00,23.0,22.5,00.0,31.9,24.9,14.0,0000.0,0002.43,0007.37,0001.43
2021-11-28 12:25:00,,0829.1,5.01,0.00,23.0,22.4,00.0,31.9,24.9,14.0,0000.0,0002.47,0007.71,0001.45
2021-11-28 12:26:00,,0829.3,5.00,0.00,23.0,22.4,00.0,31.9,24.8,14.1,0000.0,0002.49,0007.41,0001.46
2021-11-28 12:27:00,,0829.1,5.00,0.00,23.0,22.3,00.0,31.9,24.8,14.1,0000.0,0002.48,0007.49,0001.45
2021-11-28 12:28:00,,0829.1,5.01,0.00,23.0,22.3,00.0,31.9,24.8,14.1,0000.0,0002.48,0007.80,0001.44
2021-11-28 12:29:00,,0829.1,5.00,0.00,23.0,22.3,00.0,31.9,24.8,14.1,0000.0,0002.51,0008.28,0001.44
2021-11-28 12:30:00,,0829.2,4.99,0.00,23.0,22.3,00.0,31.9,24.8,14.1,0000.0,0002.60,0008.31,0001.45
2021-11-28 12:31:00,,0829.2,5.01,0.00,23.0,22.2,00.0,31.9,24.8,14.1,0000.0,0002.60,0008.37,0001.46
2021-11-28 12:32:00,,0829.3,5.01,0.00,23.0,22.2,00.0,31.9,24.8,14.1,0000.0,0002.62,0008.31,0001.45
2021-11-28 12:33:00,,0829.3,4.99,0.00,23.0,22.2,00.0,31.9,24.8,14.1,0000.0,0002.61,0008.29,0001.47
2021-11-28 12:34:00,,0829.2,5.00,0.00,23.0,22.2,00.0,31.9,24.8,14.1,0000.0,0002.59,0008.28,0001.47
2021-11-28 12:35:00,,0829.0,5.00,0.00,23.0,22.2,00.0,31.9,24.8,14.1,0000.0,0002.65,0008.12,0001.48
2021-11-28 12:36:00,,0829.1,5.00,0.00,23.0,22.1,00.0,31.9,24.8,14.1,0000.0,0002.64,0008.41,0001.48
2021-11-28 12:37:00,,0829.1,4.99,0.00,23.0,22.1,00.0,31.9,24.8,14.1,0000.0,0002.60,0008.48,0001.47
2021-11-28 12:38:00,,0829.0,5.01,0.00,23.0,22.1,00.0,31.9,24.7,14.1,0000.0,0002.62,0008.19,0001.49
2021-11-28 12:39:00,,0829.1,5.00,0.00,23.0,22.1,00.0,31.9,24.7,14.1,0000.0,0002.62,0008.02,0001.51
2021-11-28 12:40:00,,0829.0,4.99,0.00,22.9,22.1,00.0,31.9,24.7,14.1,0000.0,0002.66,0007.92,0001.52
2021-11-28 12:41:00,,0828.9,5.01,0.00,22.9,22.1,00.0,31.9,24.8,14.1,0000.0,0002.67,0008.08,0001.53
2021-11-28 12:42:00,,0829.0,5.01,0.00,22.9,22.1,00.0,31.9,24.8,14.1,0000.0,0002.63,0007.75,0001.54
2021-11-28 12:43:00,,0829.0,4.99,0.00,22.9,22.1,00.0,31.9,24.7,14.1,0000.0,0002.60,0007.74,0001.53
2021-11-28 12:44:00,,0828.9,5.00,0.00,22.9,22.1,00.0,31.9,24.7,14.1,0000.0,0002.59,0007.72,0001.55
2021-11-28 12:45:00,,0828.9,5.01,0.00,22.9,22.1,00.0,31.9,24.7,14.2,0000.0,0002.65,0007.87,0001.55
2021-11-28 12:46:00,,0829.1,4.99,0.00,22.9,22.1,00.0,31.9,24.7,14.2,0000.0,0002.57,0007.79,0001.55
2021-11-28 12:47:00,,0829.0,5.00,0.00,22.9,22.1,00.0,31.9,24.8,14.1,0000.0,0002.53,0007.04,0001.55
2021-11-28 12:48:00,,0829.0,5.00,0.00,22.9,22.1,00.0,31.9,24.7,14.1,0000.0,0002.58,0007.62,0001.56
2021-11-28 12:49:00,,0829.0,4.98,0.00,22.9,22.1,00.0,31.9,24.7,14.1,0000.0,0002.59,0007.65,0001.56
2021-11-28 12:50:00,,0829.0,5.01,0.00,22.9,22.1,00.0,31.9,24.7,14.1,0000.0,0002.66,0007.95,0001.57
2021-11-28 12:51:00,,0829.0,4.99,0.00,22.9,22.1,00.0,31.9,24.7,14.1,0000.0,0002.62,0007.66,0001.57
2021-11-28 12:52:00,,0829.0,5.00,0.00,22.9,22.0,00.0,31.9,24.7,14.1,0000.0,0002.58,0007.32,0001.57
2021-11-28 12:53:00,,0829.0,5.00,0.00,22.9,22.0,00.0,31.9,24.7,14.1,0000.0,0002.60,0007.37,0001.59
2021-11-28 12:54:00,,0829.1,5.01,0.00,22.9,22.0,00.0,31.9,24.7,14.2,0000.0,0002.64,0007.45,0001.61
2021-11-28 12:55:00,,0829.1,4.99,0.00,22.9,22.0,00.0,31.9,24.7,14.2,0000.0,0002.67,0007.60,0001.61
2021-11-28 12:56:00,,0829.0,5.01,0.00,22.9,22.0,00.0,31.9,24.7,14.2,0000.0,0002.69,0008.43,0001.63
2021-11-28 12:57:00,,0829.0,5.00,0.00,22.9,22.0,00.0,31.9,24.7,14.2,0000.0,0002.78,0008.67,0001.65
2021-11-28 12:58:00,,0829.1,4.99,0.00,22.9,22.0,00.0,31.9,24.7,14.3,0000.0,0002.84,0008.60,0001.66
2021-11-28 12:59:00,,0829.1,5.00,0.00,22.9,22.0,00.0,31.9,24.7,14.3,0000.0,0002.90,0008.35,0001.68
